Flag for U.S.A. Weather past 2 weeks in Providence, Rhode Island, U.S.A.

Now
27 °F

Clear.


Feels Like: 22 °F
Forecast: 25 / 39 °F
Wind: 5 mph from Northwest

Location: Green State Airport

Current Time: Dec 20, 2014 at 1:21:52 AM

Latest Report: Dec 20, 2014 at 12:51 AM


Visibility: 10 mi

Pressure: 30.16 "Hg

Humidity: 75%

Dew point: 20 °F

Location of ProvidenceLocation

Historic Weather in Providence — Graph

°F

Providence temperature yesterday

Maximum temperature yesterday: 37 °F (at 9:51 AM)
Minimum temperature yesterday: 29 °F (at 11:51 PM)
Average temperature yesterday: 34 °F

Past Weeks' High & Low Weather Summary

 TemperatureHumidityPressure
High51 °F (Dec 17, 1:51 PM)97% (Dec 5, 11:59 PM)30.73 "Hg (Dec 5, 11:59 PM)
Low21 °F (Dec 8, 3:51 AM)37% (Dec 7, 1:51 PM)29.43 "Hg (Dec 10, 6:51 PM)
Average37 °F75%30.00 "Hg
* Reported Dec 4 11:51 PM — Dec 19 11:51 PM, Providence, Weather by CustomWeather, © 2014

Note: Actual official high and low records may vary slightly from our data, if they occured in-between our weather recording intervals... More about our weather records

Advertising

Providence weather history for previous 24 hours

 ConditionsComfort  
Time TempWeatherWind HumidityBarometerVisibility
11:51 PM
Dec 19
29 °FPassing clouds.6 mph69%30.14 "Hg10 mi
10:51 PM30 °FPassing clouds.5 mph66%30.13 "Hg10 mi
9:51 PM31 °FPassing clouds.5 mph64%30.12 "Hg10 mi
8:51 PM32 °FOvercast.3 mph61%30.11 "Hg10 mi
7:51 PM33 °FOvercast.8 mph58%30.09 "Hg10 mi
6:51 PM34 °FOvercast.7 mph56%30.08 "Hg10 mi
5:51 PM34 °FOvercast.13 mph59%30.05 "Hg10 mi
4:51 PM34 °FOvercast.12 mph59%30.03 "Hg10 mi
3:51 PM35 °FOvercast.10 mph59%30.01 "Hg10 mi
2:51 PM35 °FOvercast.12 mph59%29.98 "Hg10 mi
1:51 PM36 °FOvercast.13 mph57%29.96 "Hg10 mi
12:51 PM36 °FMostly cloudy.10 mph59%29.95 "Hg10 mi
11:51 AM36 °FMostly cloudy.12 mph57%29.96 "Hg10 mi
10:51 AM36 °FMore clouds than sun.12 mph59%29.97 "Hg10 mi
9:51 AM37 °FPartly sunny.12 mph57%29.97 "Hg10 mi
8:51 AM36 °FPartly sunny.10 mph59%29.95 "Hg10 mi
7:51 AM35 °FPartly sunny.13 mph64%29.94 "Hg10 mi
6:51 AM34 °FPassing clouds.8 mph64%29.92 "Hg10 mi
5:51 AM34 °FPassing clouds.9 mph70%29.90 "Hg10 mi
4:51 AM33 °FClear.8 mph72%29.90 "Hg10 mi
3:51 AM35 °FOvercast.8 mph67%29.89 "Hg10 mi
2:51 AM35 °FOvercast.8 mph67%29.90 "Hg10 mi
1:51 AM35 °FOvercast.8 mph70%29.89 "Hg10 mi
Weather by CustomWeather, © 2014

See weather overviewHow to use our weather pages